Home > Time Zones > World Clock > Weather > Italy > Milan > Past weeks

Flag for Italy Weather past 2 weeks in Milan, Italy

Now
36 °F

Clear.


Feels Like: 36 °F
Forecast: 29 / 46 °F
Wind: 1 mph from North

Location: Milan / Linate

Current Time: Feb 1, 2015 at 2:03:31 AM

Latest Report: Feb 1, 2015 at 1:20 AM


Visibility: 10 mi

Pressure: 29.18 "Hg

Humidity: 81%

Dew point: 30 °F

Location of MilanLocation

Historic Weather in Milan — Graph

°F

Milan temperature yesterday

Maximum temperature yesterday: 43 °F (at 1:50 PM)
Minimum temperature yesterday: 27 °F (at 4:50 AM)
Average temperature yesterday: 36 °F

Past Weeks' High & Low Weather Summary

 TemperatureHumidityPressure
High55 °F (Jan 17, 2:20 PM)100% (Jan 17, 12:20 AM)30.27 "Hg (Jan 17, 12:20 AM)
Low27 °F (Jan 31, 4:50 AM)28% (Jan 25, 4:20 PM)28.85 "Hg (Jan 30, 11:50 AM)
Average39 °F86%29.79 "Hg
* Reported Jan 17 12:20 AM — Feb 1 12:50 AM, Milan, Weather by CustomWeather, © 2014

Note: Actual official high and low records may vary slightly from our data, if they occured in-between our weather recording intervals... More about our weather records

Advertising

Milan weather history for previous 24 hours

 ConditionsComfort  
Time TempWeatherWind HumidityBarometerVisibility
12:50 AM
Feb 1
36 °FClear.2 mph81%29.18 "Hg10 mi
12:20 AM36 °FClear.3 mph81%29.21 "Hg10 mi
11:50 PM
Jan 31
37 °FClear.5 mph75%29.21 "Hg10 mi
11:20 PM36 °FClear.3 mph81%29.21 "Hg10 mi
10:50 PM37 °FClear.5 mph75%29.18 "Hg10 mi
10:20 PM37 °FClear.5 mph75%29.18 "Hg10 mi
9:50 PM37 °FClear.5 mph75%29.18 "Hg10 mi
9:20 PM37 °FClear.3 mph81%29.18 "Hg10 mi
8:50 PM36 °FClear.3 mph87%29.18 "Hg10 mi
8:20 PM37 °FClear.2 mph81%29.18 "Hg10 mi
7:50 PM37 °FClear.2 mph81%29.18 "Hg10 mi
7:20 PM37 °FClear.3 mph81%29.18 "Hg10 mi
6:50 PM37 °FClear.3 mph81%29.18 "Hg10 mi
6:20 PM39 °FPassing clouds.3 mph75%29.15 "HgN/A
5:50 PM41 °FClear.2 mph76%29.15 "Hg10 mi
5:20 PM41 °FSunny.2 mph70%29.15 "Hg10 mi
4:50 PM43 °FPassing clouds.3 mph66%29.12 "HgN/A
4:20 PM43 °FPassing clouds.5 mph71%29.12 "HgN/A
3:50 PM43 °FSunny.2 mph66%29.12 "Hg10 mi
3:20 PM43 °FPassing clouds.5 mph66%29.12 "HgN/A
2:50 PM43 °FPassing clouds.6 mph71%29.12 "HgN/A
2:20 PM43 °FPassing clouds.8 mph66%29.12 "HgN/A
1:50 PM43 °FPassing clouds.8 mph66%29.12 "HgN/A
1:20 PM41 °FPassing clouds.8 mph70%29.12 "HgN/A
12:50 PM41 °FPassing clouds.8 mph70%29.15 "HgN/A
12:20 PM41 °FPassing clouds.7 mph76%29.15 "HgN/A
11:50 AM39 °FPassing clouds.7 mph75%29.15 "HgN/A
11:20 AM39 °FSunny.9 mph75%29.15 "Hg10 mi
10:50 AM37 °FSunny.8 mph75%29.12 "Hg10 mi
10:20 AM36 °FPassing clouds.7 mph75%29.12 "HgN/A
9:50 AM36 °FSunny.8 mph75%29.12 "Hg10 mi
9:20 AM34 °FPassing clouds.6 mph75%29.12 "HgN/A
8:50 AM34 °FSunny.7 mph75%29.09 "Hg10 mi
8:20 AM32 °FSunny.6 mph69%29.09 "Hg10 mi
7:50 AM32 °FSunny.7 mph69%29.06 "Hg10 mi
7:20 AM30 °FClear.5 mph75%29.06 "Hg10 mi
6:50 AM28 °FPassing clouds.3 mph86%29.06 "HgN/A
6:20 AM28 °FClear.2 mph93%29.06 "Hg10 mi
5:50 AM27 °FClear.1 mph100%29.03 "Hg10 mi
5:20 AM28 °FClear.1 mph93%29.03 "Hg10 mi
4:50 AM27 °FClear.3 mph100%29.03 "Hg10 mi
3:50 AM28 °FClear.1 mph93%29.00 "Hg10 mi
3:20 AM30 °FClear.3 mph93%29.00 "Hg10 mi
2:50 AM30 °FClear.2 mph93%29.00 "Hg10 mi
2:20 AM30 °FClear.1 mph93%29.00 "Hg10 mi
Weather by CustomWeather, © 2014

See weather overviewHow to use our weather pages